Weather History for KGKJ - February, 2014

Change the Weather History Date:

Saturday, February 22, 2014

  Actual Average Record
Temperature  
Mean Temperature 38 °F -  
Max Temperature 43 °F 40 °F 62 °F (1983)
Min Temperature 33 °F 20 °F -10 °F (1963)
Degree Days  
Heating Degree Days 27    
Moisture  
Dew Point 23 °F    
Average Humidity 61    
Maximum Humidity 87    
Minimum Humidity 40    
Precipitation  
Precipitation 0.01 in - - ()
Sea Level Pressure  
Sea Level Pressure 29.95 in    
Wind  
Wind Speed 12 mph (WSW)    
Max Wind Speed 21 mph    
Max Gust Speed 33 mph    
Visibility 9 miles    
Events Snow    
Averages and records for this station are not official NWS values.
T = Trace of Precipitation, MM = Missing Value Source: NWS Daily Summary

Daily Weather History Graph

Daily Weather History Graph

Search for Another Location

Airport or City:

Trip Planner

Search our weather history database for the weather conditions in past years. The results will help you decide how hot, cold, wet, or windy it might be!

Date:

Astronomy

Feb. 22, 2014 Rise Set
Actual Time 7:06 AM EST 6:02 PM EST
Civil Twilight 6:38 AM EST 6:31 PM EST
Nautical Twilight 6:05 AM EST 7:03 PM EST
Astronomical Twilight 5:33 AM EST 7:35 PM EST
Moon 1:01 AM EST (2/22) 11:10 AM EST (2/22)
Length of Visible Light 11h 52m
Length of Day
10h 56m
Waning Gibbous, 50% of the Moon is Illuminated
Feb 22
Waning Gibbous
Feb 22
Last Quarter
Mar 1
New
Mar 8
First Quarter
Mar 16
Full

Hourly Weather History & Observations

Time (EST) Temp. Windchill Dew Point Humidity Pressure Visibility Wind Dir Wind Speed Gust Speed Precip Events Conditions
12:53 AM 34.0 °F 26.6 °F 15.1 °F 46% 29.90 in 10.0 mi SW 9.2 mph - N/A   Clear
1:53 AM 34.0 °F 26.0 °F 15.1 °F 46% 29.90 in 10.0 mi SW 10.4 mph 17.3 mph N/A   Clear
2:53 AM 33.1 °F 24.9 °F 16.0 °F 50% 29.89 in 10.0 mi SSW 10.4 mph - N/A   Clear
3:53 AM 33.1 °F 25.5 °F 16.0 °F 50% 29.87 in 10.0 mi South 9.2 mph - N/A   Mostly Cloudy
4:53 AM 33.1 °F 24.4 °F 16.0 °F 50% 29.83 in 10.0 mi South 11.5 mph 19.6 mph N/A   Mostly Cloudy
5:53 AM 36.0 °F 26.3 °F 15.1 °F 43% 29.83 in 10.0 mi SSW 16.1 mph 24.2 mph N/A   Overcast
6:53 AM 36.0 °F 28.0 °F 17.1 °F 46% 29.85 in 10.0 mi SW 11.5 mph 20.7 mph N/A   Mostly Cloudy
7:53 AM 37.0 °F 29.3 °F 18.0 °F 46% 29.88 in 10.0 mi SW 11.5 mph 19.6 mph N/A   Clear
8:53 AM 39.0 °F 30.3 °F 19.9 °F 46% 29.91 in 10.0 mi WSW 16.1 mph 21.9 mph N/A   Clear
9:53 AM 39.0 °F 31.0 °F 23.0 °F 53% 29.94 in 10.0 mi WSW 13.8 mph 24.2 mph N/A   Scattered Clouds
10:53 AM 39.9 °F 30.2 °F 23.0 °F 51% 29.96 in 10.0 mi WSW 20.7 mph 29.9 mph N/A   Overcast
11:53 AM 41.0 °F 33.1 °F 21.0 °F 45% 29.96 in 10.0 mi WSW 15.0 mph 28.8 mph N/A   Partly Cloudy
12:53 PM 42.1 °F 33.6 °F 19.9 °F 41% 29.96 in 10.0 mi WSW 18.4 mph 33.4 mph N/A   Clear
1:53 PM 42.1 °F 34.2 °F 19.9 °F 41% 29.96 in 10.0 mi WSW 16.1 mph 25.3 mph N/A   Clear
2:53 PM 42.1 °F 33.6 °F 19.9 °F 41% 29.96 in 10.0 mi WSW 18.4 mph 24.2 mph N/A   Clear
3:53 PM 43.0 °F 36.4 °F 19.9 °F 40% 29.98 in 10.0 mi West 12.7 mph - N/A   Clear
4:53 PM 39.9 °F 33.9 °F 19.9 °F 45% 29.98 in 10.0 mi WSW 9.2 mph 19.6 mph N/A   Mostly Cloudy
5:53 PM 39.9 °F 33.4 °F 21.9 °F 49% 29.99 in 10.0 mi WSW 10.4 mph - N/A   Overcast
6:53 PM 37.9 °F 30.0 °F 21.9 °F 53% 30.00 in 10.0 mi West 12.7 mph 23.0 mph N/A   Overcast
7:53 PM 36.0 °F 28.5 °F 27.0 °F 70% 30.01 in 10.0 mi West 10.4 mph 19.6 mph N/A   Overcast
8:09 PM 35.6 °F 26.6 °F 28.4 °F 75% 29.97 in 1.8 mi WSW 13.8 mph - 0.00 in Snow Light Snow
8:23 PM 35.6 °F 27.1 °F 30.2 °F 81% 29.97 in 3.0 mi West 12.7 mph 25.3 mph 0.00 in Snow Light Snow
8:33 PM 35.6 °F 28.0 °F 30.2 °F 81% 29.97 in 10.0 mi West 10.4 mph 19.6 mph 0.00 in   Overcast
8:53 PM 35.1 °F 26.4 °F 30.9 °F 85% 30.00 in 8.0 mi West 12.7 mph - 0.00 in   Overcast
9:04 PM 35.6 °F 26.6 °F 30.2 °F 81% 29.97 in 8.0 mi West 13.8 mph 19.6 mph 0.00 in   Overcast
9:22 PM 35.6 °F 27.5 °F 30.2 °F 81% 29.98 in 6.0 mi West 11.5 mph - 0.00 in Snow Light Snow
9:42 PM 35.6 °F 28.6 °F 32.0 °F 87% 29.97 in 10.0 mi WSW 9.2 mph 18.4 mph 0.01 in   Overcast
9:53 PM 35.1 °F 27.4 °F 30.9 °F 85% 30.01 in 10.0 mi WSW 10.4 mph - 0.01 in   Overcast
10:53 PM 36.0 °F 28.5 °F 30.9 °F 82% 30.01 in 10.0 mi WSW 10.4 mph 20.7 mph 0.00 in   Overcast
11:12 PM 35.6 °F 29.2 °F 30.2 °F 81% 29.97 in 10.0 mi WSW 8.1 mph - 0.00 in   Overcast
11:34 PM 35.6 °F 30.7 °F 30.2 °F 81% 29.97 in 10.0 mi SW 5.8 mph - 0.00 in   Overcast
11:53 PM 35.1 °F 30.1 °F 30.9 °F 85% 29.99 in 10.0 mi SW 5.8 mph - 0.00 in   Overcast